Location: ??????
(30.5519°N, 47.7720°E)
Time: 09:10:03
(UTC+00:00)

PSLV R/B - Pass Details

Date: 18 May 2021
Orbit: 567 x 598 km, 98.2° (Epoch: 21 June)

Event Time Altitude Azimuth Distance (km) Brightness Sun altitude
Rises 16:19:55 0° 357° (N) 2,842 7.9 -8.8°
Reaches altitude 10° 16:22:20 10° 345° (NNW) 1,935 7.3 -9.3°
Maximum altitude 16:25:50 26° 288° (WNW) 1,171 6.5 -9.9°
Drops below altitude 10° 16:29:19 10° 231° (SW) 1,916 6.9 -10.6°
Sets 16:31:43 0° 219° (SW) 2,808 7.5 -11.0°
